星链-33921(STARLINK-33921)

导读

STARLINK-33921是美国SpaceX公司于2025年10月8日发射的第二代星链互联网卫星,属全球规模最大低轨卫星星座的一员。它运行在近地轨道,配备先进相控阵天线与激光星间链路,可提供百兆以上高速宽带与低延迟服务,支持偏远地区接入、移动互联和应急通信,助力星链实现全球覆盖,延续星链大规模量产部署、低成本运营的技术路径。

基本信息
目录编号:
65934
目录名称:
STARLINK-33921
国际标识:
2025-225AA
轨道中心:
EARTH
卫星名称:
星链-33921
卫星全名:
星链-33921(STARLINK-33921)
卫星状态:
在轨 (已飞行331 天)
发射日期:
2025-10-08 UTC
国别 :
美国 (US)
星等 :
--
轨道信息
数据来源 国际轨道数据 AOE轨道数据
星历时间 2026-09-04T02:10:57+0800
12小时前
查看轨道信息
2026-08-31T12:00:00+0800
4天前
查看轨道信息
半长轴 6840.823km 6840.906km
偏心率 0.0000273 0.0001372
轨道倾角 53.161° 53.161°
近地点辐角 142.089° 76.317°
升交点赤经 57.681° 74.469°
平近点角 218.014° 236.992°
近地点 462.499km 461.83km
远地点 462.873km 463.708km
周期 93.847分钟 93.849分钟
每日圈数 15.34406 15.343779
详细信息
固有亮度:
5
最大亮度:
2.5
卫星平台:
Starlink V1.0
覆盖范围:
全球
运营商:
太空探索技术公司
运营商所在国:
美国
制造商(研发单位):
太空探索技术公司
制造商所在国:
美国
使用方式:
暂无
卫星简介
Starlink 计划是 SpaceX 推出的全球卫星互联网项目,通过发射低轨道卫星,为全球尤其是偏远地区提供高速、低延迟的互联网服务。自 2019 年起,Starlink 已部署数千颗卫星,旨在缩小全球数字鸿沟,推动互联网普及。该项目还为军事、航空等行业提供通信支持,带来广泛经济效益。
2D轨道图
3D轨道图
轨道高度分析图
轨道倾角分析图
轨道综合分析图
查看轨道综合分析图
交会数据列表
事件ID 空间交会对象 最接近时刻(TCA) 交会距离 交会风险概率(CRP) 交会风险指数(CRI) 操作
CDM_260828-044605-399506-593421
2026-08-28T
04:46:57+0000
0.881 km
远距离
2.519948E-5 中风险 0.63
CDM_260828-031305-399506-593421
2026-08-28T
03:13:10+0000
1.970 km
极远距离
1.897963E-6 低风险 0.41
CDM_260905-070805-250306-593421
2026-09-05T
07:08:41+0000
2.396 km
极远距离
1.469259E-6 低风险 0.38
CDM_260902-080106-539006-593421
2026-09-02T
08:01:49+0000
2.744 km
极远距离
1.052338E-6 低风险 0.35
CDM_260905-125205-399506-593421
2026-09-05T
12:52:52+0000
2.740 km
极远距离
1.001777E-6 低风险 0.35
CDM_260903-113105-256106-593421
2026-09-03T
11:31:10+0000
2.739 km
极远距离
4.54925E-7 极低风险 0.28